Find Starlink 4429

NORAD ID: 53495 Int'l Des: 2022-099 Owner: SPXS Country: US Constellation: starlink operational
LEOCIRCULARRETROGRADESSO

Live Position

Loading 3D Globe...

About Starlink 4429

Description loading...

Upcoming Passes

Passes for default location (London). Set your location on the main map for personalized predictions.

Altitude History

Loading altitude history...

Two-Line Element Set

1 53495U 22099AG 26107.28316465 .00001125 00000-0 82155-4 0 9993
2 53495 97.6028 228.1307 0000836 100.5062 259.6259 15.05650967201784
Epoch: Apr 17, 2026 • Age: 9 hours

Current Status

Altitude 551.6 km
Velocity 7.59 km/s
Sub-Earth Point 10.17°N, 28.76°W
Launch Date Aug 12, 2022
Age 3.6 years
Type internet

Technical Details

Classification Payload
Mass 300.00 kg
Dry Mass 275.00 kg
Total Mass 300.00 kg
Length 0.20 m
Diameter 2.80 m
Span 9.00 m
Shape Box + pan
Manufacturer SPXS
Bus Type Starlink
Phase Status In Orbit
Owner/State SPXS/US

Most Searched